Location: Bishop�s Knoyle
(51.0728°N, 2.1714°W)
Time: 05:29:55
(UTC+00:00)

NOSS 3-2 (A) - Pass Details

Date: 18 September 2020
Orbit: 795 x 1413 km, 63.4° (Epoch: 02 October)

Event Time Altitude Azimuth Distance (km) Brightness Sun altitude
Rises 19:58:14 0° 315° (NW) 3,905 8.0 -16.5°
Reaches altitude 10° 20:00:45 10° 314° (NW) 3,028 7.2 -16.9°
Maximum altitude 20:08:07 79° 230° (SW) 1,285 4.1 -17.9°
Enters shadow 20:13:56 22° 147° (SSE) 2,574 5.2 -18.7°
